Cosmos 1626 Rocket - Orbit

View from above orbital plane
View from above orbital plane
View from above satellite
View from above satellite

Ground track
Ground track

The orbit data is extracted from the following two-line orbital elements,

1 15495U 85009B   13140.52748197  .00000335  00000-0  38269-4 0  4648
2 15495 082.5234 141.1186 0020452 194.2364 282.6799 14.82894002529270
Epoch (UTC): 20 May 2013 12:39:34
Eccentricity: 0.0020452
inclination: 82.5234°
perigee height: 606 km
apogee height: 634 km
right ascension of ascending node: 141.1186°
argument of perigee: 194.2364°
revolutions per day: 14.82894002
mean anomaly at epoch: 282.6799°
orbit number at epoch: 52927

The dashed part of the orbit path shows where the satellite is in the earth's shadow,  

Developed and maintained by Chris Peat, Heavens-Above GmbH. Please read the updated FAQ before sending e-mail. Imprint. DLR